Temp
-7 -7 -7 -7 -7 -6 -6 -6 -6 -7 -7 -7 -7 -7 -7 -7 -7 -6 -6 -6 -6 -6 -7 -7 -7 -7 -7 -7 -7 -7 -7 -7 -7 -7 -7 -7 -7 -7 -7 -7 -7 -7 -7
-8 -7 -7 -7 -7 -7 -6 -6 -6 -7 -7 -7 -7 -7 -7 -7 -7 -7 -7 -7 -7 -7 -7 -7 -7 -7 -7 -7 -7 -7 -7 -7 -7 -7 -7 -7 -7 -7 -7 -8 -7 -7 -7
-8 -8 -7 -8 -8 -7 -7 -6 -6 -7 -7 -7 -7 -7 -7 -7 -7 -7 -7 -7 -7 -7 -7 -7 -7 -7 -7 -7 -7 -7 -7 -7 -7 -7 -7 -7 -7 -8 -8 -8 -8 -8 -8
-8 -8 -8 -8 -8 -7 -7 -7 -7 -7 -7 -7 -7 -7 -7 -7 -7 -7 -7 -7 -7 -7 -7 -7 -7 -7 -7 -8 -8 -8 -8 -7 -7 -8 -8 -8 -8 -8 -8 -8 -8 -8 -8
-8 -8 -8 -8 -8 -8 -7 -7 -7 -7 -7 -7 -7 -7 -7 -7 -7 -7 -7 -7 -7 -8 -8 -8 -8 -8 -8 -8 -8 -8 -8 -8 -8 -8 -8 -8 -8 -8 -8 -8 -8 -8 -8
-9 -9 -8 -8 -8 -8 -7 -7 -7 -7 -7 -7 -8 -8 -8 -7 -7 -7 -8 -8 -8 -8 -8 -8 -8 -8 -8 -8 -8 -8 -8 -8 -8 -8 -8 -9 -9 -9 -9 -9 -9 -9 -9
-9 -9 -8 -8 -8 -8 -8 -7 -7 -7 -7 -8 -8 -8 -8 -8 -8 -8 -8 -8 -8 -8 -8 -8 -8 -8 -9 -9 -9 -9 -9 -9 -9 -9 -9 -9 -9 -9 -9 -9 -9 -9 -9
-9 -9 -9 -8 -8 -8 -8 -8 -8 -7 -7 -8 -8 -8 -8 -8 -8 -8 -8 -8 -8 -8 -8 -9 -9 -9 -9 -9 -9 -9 -9 -9 -9 -9 -9 -9 -9 -9 -9 -9 -9 -9 -9
-10 -9 -9 -9 -8 -8 -8 -8 -8 -8 -8 -8 -8 -8 -8 -8 -8 -8 -8 -8 -8 -8 -8 -9 -9 -9 -9 -9 -9 -9 -10 -10 -10 -10 -10 -10 -10 -9 -9 -9 -9 -9 -9
-10 -9 -9 -9 -9 -8 -8 -8 -8 -8 -8 -8 -8 -8 -8 -8 -8 -8 -8 -8 -8 -8 -8 -9 -9 -9 -9 -9 -9 -10 -10 -10 -10 -10 -10 -10 -10 -10 -10 -10 -10 -10 -10
-10 -10 -10 -9 -9 -9 -8 -8 -8 -8 -8 -8 -8 -9 -9 -9 -9 -9 -9 -9 -9 -9 -8 -9 -9 -9 -9 -9 -9 -9 -9 -10 -10 -10 -11 -11 -11 -11 -11 -10 -10 -10 -10
-10 -10 -10 -10 -9 -9 -8 -8 -8 -8 -8 -8 -8 -9 -9 -9 -9 -9 -9 -9 -9 -9 -9 -9 -9 -9 -9 -9 -9 -9 -9 -10 -10 -10 -10 -11 -11 -11 -11 -11 -11 -11 -10
-11 -11 -11 -10 -10 -9 -9 -9 -9 -8 -8 -8 -8 -9 -9 -9 -9 -9 -9 -9 -9 -9 -9 -9 -9 -9 -9 -10 -10 -10 -10 -10 -10 -10 -10 -10 -11 -11 -11 -11 -11 -10 -10
-11 -11 -11 -11 -11 -10 -9 -9 -9 -9 -9 -9 -9 -9 -9 -9 -9 -9 -9 -9 -9 -9 -9 -10 -10 -10 -9 -10 -10 -10 -10 -10 -10 -10 -10 -10 -10 -10 -10 -10 -10 -10 -10
-9 -11 -11 -11 -11 -10 -10 -9 -9 -9 -9 -9 -9 -9 -9 -9 -10 -10 -10 -10 -10 -9 -10 -10 -10 -10 -10 -10 -10 -10 -10 -10 -11 -11 -11 -11 -10 -10 -10 -10 -10 -10 -10
-9 -12 -12 -12 -11 -10 -10 -10 -10 -9 -9 -9 -9 -9 -9 -9 -10 -10 -10 -10 -10 -10 -10 -10 -10 -11 -10 -10 -10 -11 -11 -11 -11 -11 -11 -11 -11 -11 -10 -10 -10 -10 -10
-9 -11 -12 -12 -12 -11 -11 -10 -10 -10 -10 -10 -9 -9 -10 -10 -10 -10 -10 -10 -10 -10 -10 -11 -10 -11 -11 -11 -11 -11 -11 -11 -11 -11 -11 -11 -11 -10 -11 -11 -11 -11 -10
-11 -11 -12 -12 -12 -12 -11 -11 -11 -10 -10 -10 -10 -10 -10 -10 -10 -10 -11 -11 -11 -11 -11 -11 -11 -11 -11 -11 -11 -11 -11 -11 -11 -11 -11 -11 -11 -11 -11 -11 -11 -11 -11
-11 -10 -11 -12 -12 -12 -12 -11 -11 -10 -10 -10 -10 -10 -10 -10 -10 -11 -11 -11 -11 -11 -11 -11 -11 -11 -11 -11 -11 -11 -11 -12 -12 -12 -12 -11 -11 -11 -11 -11 -11 -11 -11
-13 -12 -11 -11 -12 -12 -12 -11 -11 -11 -11 -11 -10 -10 -10 -11 -11 -11 -11 -11 -11 -11 -11 -11 -11 -11 -12 -12 -12 -12 -12 -12 -12 -12 -12 -12 -12 -12 -12 -12 -12 -12 -12
-14 -13 -12 -11 -10 -11 -11 -11 -11 -11 -11 -11 -11 -11 -11 -11 -11 -11 -11 -11 -11 -11 -12 -12 -12 -12 -12 -12 -12 -12 -12 -13 -13 -13 -12 -13 -13 -12 -12 -12 -12 -12 -12
-15 -14 -13 -12 -12 -12 -11 -12 -12 -12 -12 -12 -12 -11 -11 -11 -11 -11 -11 -12 -12 -12 -12 -12 -12 -12 -12 -12 -12 -12 -13 -13 -13 -13 -13 -13 -13 -13 -13 -13 -12 -12 -12
-16 -16 -15 -15 -13 -12 -12 -12 -11 -11 -12 -13 -13 -12 -12 -11 -11 -11 -12 -12 -12 -12 -12 -12 -12 -13 -12 -12 -13 -13 -13 -13 -13 -13 -13 -13 -13 -13 -13 -13 -13 -13 -12
-14 -15 -16 -14 -14 -13 -13 -12 -12 -12 -12 -12 -13 -13 -13 -12 -12 -12 -12 -12 -12 -13 -13 -13 -13 -13 -13 -12 -12 -13 -13 -13 -13 -13 -13 -13 -13 -13 -14 -13 -13 -14 -13
-14 -15 -14 -14 -14 -14 -15 -13 -12 -13 -13 -12 -12 -13 -13 -13 -13 -13 -13 -13 -13 -13 -13 -13 -13 -13 -13 -13 -13 -13 -13 -13 -13 -13 -14 -13 -14 -13 -14 -14 -14 -14 -14
-14 -15 -14 -14 -14 -13 -14 -14 -13 -13 -12 -12 -12 -13 -12 -12 -13 -13 -13 -13 -13 -13 -13 -13 -13 -13 -13 -13 -13 -13 -13 -13 -13 -13 -13 -13 -13 -13 -13 -14 -14 -15 -15
Height
5843 5844 5845 5847 5849 5850 5852 5854 5855 5857 5858 5860 5861 5862 5863 5864 5864 5865 5865 5865 5865 5866 5866 5866 5866 5866 5866 5867 5867 5867 5866 5866 5865 5865 5865 5864 5863 5863 5862 5861 5860 5860 5859
5840 5842 5844 5845 5846 5848 5850 5852 5853 5856 5857 5859 5860 5862 5863 5864 5865 5865 5865 5865 5865 5866 5866 5867 5867 5867 5867 5867 5867 5866 5866 5866 5866 5865 5864 5864 5863 5862 5862 5861 5860 5860 5859
5837 5840 5841 5843 5845 5846 5848 5850 5852 5854 5856 5858 5860 5861 5863 5864 5865 5865 5865 5866 5866 5866 5866 5866 5866 5866 5866 5866 5866 5866 5865 5865 5865 5864 5863 5863 5862 5861 5861 5860 5860 5859 5858
5834 5836 5838 5841 5843 5844 5847 5848 5850 5852 5855 5857 5859 5861 5862 5863 5864 5865 5865 5865 5866 5866 5866 5866 5866 5865 5865 5865 5866 5865 5865 5864 5864 5863 5863 5862 5861 5861 5860 5859 5858 5858 5857
5830 5833 5835 5837 5840 5843 5845 5847 5849 5851 5853 5856 5858 5860 5861 5863 5864 5864 5865 5865 5865 5866 5866 5866 5866 5865 5865 5865 5866 5865 5865 5864 5863 5862 5862 5861 5860 5859 5859 5858 5857 5856 5855
5826 5829 5831 5834 5837 5840 5843 5845 5847 5849 5851 5854 5856 5858 5860 5861 5863 5863 5863 5864 5864 5865 5865 5865 5865 5864 5865 5865 5865 5865 5864 5863 5863 5862 5861 5860 5859 5858 5858 5857 5856 5855 5854
5820 5824 5827 5830 5833 5837 5840 5842 5844 5846 5849 5852 5854 5856 5858 5860 5861 5862 5862 5863 5863 5864 5864 5865 5864 5864 5864 5864 5863 5863 5863 5863 5862 5861 5860 5859 5858 5857 5856 5855 5855 5854 5853
5813 5817 5822 5826 5829 5833 5836 5838 5841 5843 5846 5849 5852 5854 5856 5858 5859 5860 5861 5861 5862 5862 5863 5863 5863 5863 5862 5862 5861 5861 5861 5861 5860 5859 5859 5857 5856 5855 5855 5854 5853 5852 5850
5805 5810 5816 5821 5825 5828 5832 5835 5838 5841 5843 5846 5849 5851 5853 5855 5857 5858 5859 5859 5860 5861 5861 5862 5861 5861 5860 5860 5859 5859 5858 5858 5857 5856 5856 5855 5853 5852 5852 5851 5850 5849 5847
5797 5803 5809 5814 5819 5823 5827 5831 5834 5837 5840 5842 5845 5848 5851 5853 5854 5855 5856 5857 5858 5859 5859 5860 5859 5859 5859 5858 5857 5856 5856 5855 5854 5853 5853 5852 5851 5850 5849 5848 5847 5846 5845
5790 5796 5801 5807 5813 5817 5821 5825 5829 5833 5836 5839 5842 5845 5847 5850 5851 5853 5853 5854 5856 5857 5857 5858 5858 5857 5857 5857 5855 5854 5854 5853 5852 5850 5850 5849 5848 5847 5845 5844 5843 5842 5841
5782 5789 5795 5800 5806 5810 5815 5819 5824 5828 5831 5835 5839 5841 5844 5847 5848 5849 5851 5852 5853 5854 5855 5855 5855 5855 5855 5854 5853 5852 5851 5850 5849 5848 5846 5845 5844 5843 5842 5840 5839 5838 5837
5774 5780 5788 5794 5800 5804 5807 5813 5818 5822 5826 5830 5833 5837 5840 5842 5844 5846 5847 5848 5849 5850 5851 5852 5852 5853 5852 5851 5850 5849 5848 5847 5846 5844 5843 5842 5841 5840 5839 5837 5835 5834 5833
5752 5769 5777 5785 5793 5797 5802 5806 5810 5815 5819 5824 5827 5831 5834 5837 5840 5842 5843 5844 5846 5847 5847 5848 5848 5849 5849 5848 5847 5846 5845 5844 5843 5842 5840 5839 5838 5836 5835 5833 5832 5830 5829
5734 5756 5769 5777 5785 5791 5795 5800 5804 5808 5812 5817 5821 5825 5828 5831 5834 5836 5838 5839 5841 5842 5843 5843 5844 5844 5844 5844 5843 5842 5841 5840 5839 5838 5837 5836 5834 5833 5831 5830 5828 5826 5825
5706 5745 5760 5768 5776 5783 5789 5793 5797 5801 5805 5810 5814 5818 5822 5825 5828 5830 5832 5834 5835 5837 5838 5839 5839 5840 5840 5839 5839 5838 5837 5835 5834 5833 5832 5831 5830 5828 5827 5825 5824 5822 5820
5717 5737 5747 5760 5768 5775 5779 5784 5789 5794 5798 5802 5806 5811 5815 5818 5821 5824 5826 5828 5830 5831 5832 5833 5834 5834 5835 5835 5834 5833 5832 5831 5830 5828 5827 5826 5824 5822 5820 5819 5817 5815 5814
5708 5723 5737 5746 5757 5765 5772 5776 5781 5786 5790 5794 5798 5803 5807 5811 5814 5817 5819 5822 5824 5825 5827 5827 5828 5829 5829 5829 5828 5828 5826 5826 5824 5823 5822 5819 5817 5816 5814 5812 5810 5808 5807
5703 5714 5730 5740 5751 5755 5761 5768 5773 5778 5782 5786 5791 5795 5799 5803 5806 5809 5812 5815 5816 5818 5820 5821 5821 5822 5823 5823 5823 5822 5820 5819 5817 5817 5815 5813 5810 5809 5806 5805 5803 5801 5799
5701 5713 5712 5728 5738 5745 5752 5758 5764 5771 5776 5780 5784 5787 5791 5795 5799 5802 5804 5806 5808 5811 5812 5813 5814 5815 5816 5816 5816 5815 5814 5813 5811 5809 5808 5806 5804 5801 5798 5796 5794 5792 5791
5698 5706 5712 5714 5721 5729 5742 5748 5753 5759 5766 5772 5777 5781 5784 5788 5791 5795 5797 5799 5801 5802 5804 5806 5807 5808 5808 5808 5808 5808 5807 5805 5804 5802 5800 5797 5795 5792 5790 5787 5785 5783 5781
5691 5694 5705 5706 5712 5722 5728 5738 5742 5751 5758 5762 5769 5774 5778 5782 5785 5787 5790 5792 5793 5794 5795 5798 5799 5800 5800 5801 5800 5800 5799 5798 5795 5793 5791 5789 5785 5782 5779 5776 5774 5773 5771
5686 5690 5696 5704 5708 5716 5726 5729 5733 5740 5748 5754 5760 5765 5769 5774 5777 5779 5781 5783 5785 5787 5789 5789 5790 5791 5792 5792 5791 5791 5790 5788 5785 5783 5781 5779 5776 5773 5769 5766 5764 5762 5760
5676 5683 5692 5700 5705 5709 5718 5724 5730 5736 5741 5744 5748 5754 5761 5766 5769 5772 5774 5775 5776 5778 5779 5781 5782 5782 5782 5782 5781 5780 5779 5777 5775 5774 5770 5768 5765 5762 5759 5756 5753 5752 5749
5669 5679 5692 5698 5704 5711 5716 5720 5724 5729 5734 5738 5742 5745 5751 5758 5760 5762 5765 5767 5766 5768 5770 5771 5770 5770 5771 5771 5771 5769 5768 5766 5764 5761 5759 5757 5754 5752 5748 5745 5742 5740 5738
5669 5678 5690 5694 5699 5705 5710 5716 5721 5724 5731 5734 5738 5743 5748 5749 5748 5750 5752 5756 5758 5760 5761 5761 5759 5760 5760 5758 5759 5757 5755 5753 5750 5749 5748 5746 5743 5740 5737 5735 5732 5729 5727
Wind_Speed
24 22 19 17 17 17 14 14 14 15 14 12 9 6 5 5 4 4 5 5 6 5 4 4 3 3 3 1 0 2 3 5 6 7 8 9 9 9 9 9 10 11 12
25 23 21 19 19 19 17 17 17 17 15 13 9 8 7 7 6 5 3 3 5 4 4 3 2 1 1 2 2 3 4 4 6 7 8 8 8 8 8 9 11 12 13
26 25 23 21 21 20 19 20 19 18 17 14 11 10 10 9 7 5 3 2 3 3 3 2 2 1 1 1 2 3 4 5 6 8 9 10 10 9 8 9 10 12 13
28 26 24 23 22 21 21 21 21 20 18 15 13 13 12 10 8 6 4 3 2 2 2 2 1 1 1 1 2 4 5 6 7 8 9 10 10 10 10 10 11 12 13
27 27 26 25 24 22 22 22 22 21 20 17 16 16 14 11 8 6 6 5 4 3 2 2 1 1 2 3 4 6 8 9 10 10 9 10 10 10 10 10 10 11 11
33 28 27 27 25 25 24 23 24 23 22 20 19 18 15 12 9 7 6 5 4 4 3 2 3 5 4 5 6 6 7 8 9 9 9 9 9 10 10 10 10 11 11
35 32 28 28 28 28 27 25 26 24 24 22 22 20 17 13 10 7 6 4 4 3 3 3 6 7 7 7 6 8 8 9 10 11 11 12 12 11 11 11 12 13 14
38 38 32 31 31 30 28 27 27 26 26 25 25 23 19 14 11 9 7 5 4 2 2 3 6 7 9 9 9 11 11 13 12 12 12 12 13 13 14 14 14 15 16
40 39 34 34 33 32 31 30 28 28 28 27 27 25 21 17 14 12 8 6 4 3 2 5 7 6 5 7 9 11 13 14 14 14 13 14 14 14 14 15 15 15 16
45 41 39 37 36 35 35 33 31 30 30 30 30 27 24 20 16 13 10 7 5 3 3 5 8 8 6 6 6 8 10 11 13 14 14 14 14 15 16 16 17 17 16
49 45 42 39 38 38 38 37 35 32 31 32 32 30 27 22 18 15 12 9 6 5 6 7 9 9 9 9 8 9 10 10 11 12 13 15 15 15 16 17 18 19 20
50 48 44 42 41 41 40 39 37 35 34 34 34 32 29 25 22 18 15 12 10 9 9 9 11 11 10 10 12 12 11 11 11 12 13 15 16 17 17 19 20 20 22
52 51 46 44 43 44 42 40 38 37 36 35 36 35 32 29 26 22 19 16 14 12 10 12 15 14 13 13 14 15 15 14 13 14 14 15 17 18 19 19 19 20 22
67 56 51 46 45 46 44 42 40 40 39 38 38 38 36 34 30 26 23 19 17 15 13 13 17 19 18 16 17 18 18 18 18 17 16 17 18 19 19 21 22 23 23
55 61 56 48 47 46 45 43 41 41 41 40 40 40 39 37 35 30 26 24 22 20 16 16 17 18 18 18 21 21 20 21 21 21 21 21 21 22 23 24 25 26 26
40 63 55 51 49 48 47 46 44 43 42 42 42 43 41 39 37 34 31 28 27 23 19 20 20 19 19 19 20 20 21 22 22 23 25 26 26 27 28 28 29 29 29
56 55 61 53 52 51 51 50 47 46 44 43 43 44 43 41 40 38 35 32 29 27 24 23 22 22 22 21 21 24 24 23 24 25 27 28 29 31 32 33 33 33 33
35 56 61 61 56 54 52 52 49 46 45 45 45 45 45 43 42 42 39 37 33 30 28 27 27 26 26 25 25 28 28 28 27 28 29 31 31 32 34 36 36 35 36
34 53 64 59 59 59 55 53 52 51 49 47 46 46 46 46 45 44 42 41 38 35 33 31 30 30 29 30 29 31 33 34 33 34 33 34 33 34 35 36 38 38 38
32 53 44 66 60 58 58 54 54 52 50 48 46 47 48 47 46 46 45 45 42 39 36 35 34 33 32 32 33 35 36 37 38 39 39 40 40 39 38 39 39 39 38
54 35 51 37 45 56 52 59 57 55 52 51 48 48 48 48 46 47 47 47 46 41 39 39 36 35 35 36 38 39 40 41 42 44 42 43 46 46 44 41 41 41 40
61 55 43 45 36 31 35 53 67 58 54 54 49 47 47 48 49 49 49 48 47 45 43 42 40 40 40 41 40 42 43 44 46 48 45 47 48 46 42 42 42 42 44
66 66 59 46 46 37 31 32 42 46 57 51 48 49 49 50 51 52 51 50 49 48 46 46 44 40 44 42 40 44 45 46 46 49 47 51 48 46 45 42 42 41 41
66 66 55 55 53 52 42 30 30 35 49 56 62 56 53 52 51 51 52 51 51 51 50 47 42 37 41 41 44 48 48 46 49 52 53 57 49 50 45 42 42 44 45
62 56 53 56 51 51 39 25 40 34 29 17 46 59 54 53 55 55 56 55 53 53 52 53 42 38 42 44 47 53 52 50 51 51 50 48 49 49 47 46 46 48 49
56 49 47 51 48 52 50 48 24 19 24 15 37 32 41 45 65 69 70 61 54 53 55 58 49 45 44 41 53 54 53 53 52 57 48 48 50 49 48 49 49 50 52
Wind_Direction
222 217 213 206 205 201 203 206 196 186 184 185 184 182 171 160 147 124 109 98 90 86 77 64 62 80 104 140 276 317 331 339 355 355 349 349 349 349 345 340 343 347 348
225 220 218 210 205 204 201 203 193 191 189 189 186 181 171 159 147 130 109 112 111 100 88 78 79 92 137 194 257 288 307 334 340 332 332 331 331 334 339 341 340 340 340
226 223 218 215 209 205 205 200 193 191 191 190 186 179 169 163 158 153 145 136 126 112 99 82 56 14 322 308 308 308 321 330 330 329 326 325 322 322 325 332 335 335 334
225 223 219 219 214 207 208 201 194 191 193 191 185 176 171 173 172 175 184 184 179 152 135 94 70 30 355 0 348 334 322 324 322 323 321 321 320 320 324 326 328 332 332
226 224 218 216 218 211 207 204 198 193 193 191 185 180 181 185 194 206 212 209 209 213 181 156 184 241 291 301 316 323 321 319 318 319 322 322 323 325 330 329 331 331 333
225 228 220 216 216 215 210 206 204 197 194 192 187 187 193 199 203 194 194 207 215 222 232 227 254 269 282 298 309 312 317 320 322 324 328 332 335 342 342 340 340 337 337
224 230 223 218 215 216 214 209 208 199 197 194 191 193 200 200 199 198 190 191 189 206 237 261 270 271 276 284 296 300 306 309 314 315 315 318 320 322 324 325 326 325 325
215 223 223 220 217 214 214 212 211 204 201 197 194 196 202 200 202 199 190 183 184 207 229 230 255 270 275 277 286 293 299 302 303 304 306 305 306 309 311 313 313 312 311
218 217 222 222 218 214 215 215 212 210 205 201 197 199 204 202 204 202 196 187 190 214 250 248 263 280 287 279 277 287 294 298 300 297 299 300 300 302 304 305 304 304 306
219 215 217 221 219 217 215 214 213 214 210 204 200 202 206 205 203 200 195 196 201 229 276 276 278 283 283 285 284 289 288 293 296 293 293 291 296 295 297 301 301 299 302
217 217 214 219 220 218 215 214 215 214 214 210 203 205 208 206 200 200 202 202 214 228 265 273 281 285 292 299 301 296 296 301 306 301 291 291 291 293 295 299 300 299 301
217 218 216 217 220 219 217 215 216 216 215 215 209 207 210 210 206 212 212 218 224 236 258 266 277 282 289 299 308 311 306 299 303 309 300 294 298 297 296 299 293 295 300
220 218 217 219 220 219 216 215 216 218 218 217 213 211 211 214 214 218 223 220 224 232 253 274 276 278 285 294 302 304 303 303 304 302 305 304 298 298 298 301 299 295 295
217 216 216 218 221 220 217 215 214 217 219 219 217 214 214 215 218 219 223 223 225 237 245 267 271 275 282 292 300 302 297 296 296 300 305 305 305 305 303 302 300 298 298
216 214 212 214 221 220 217 216 216 217 219 219 219 217 217 216 219 220 223 227 227 239 245 267 264 271 281 292 301 304 297 290 291 296 298 297 297 297 299 300 300 299 297
192 206 207 212 216 218 218 217 217 217 219 219 220 220 219 218 218 222 224 225 231 236 246 259 267 266 277 293 303 304 300 297 297 296 297 297 298 299 298 298 299 298 296
204 200 206 212 216 218 217 217 217 218 219 220 220 221 220 219 219 222 224 225 229 238 250 260 258 261 274 289 299 300 303 300 301 301 301 300 297 295 295 297 296 296 296
206 200 202 208 214 217 218 218 218 218 220 221 221 221 221 221 220 222 223 228 231 240 250 255 256 260 269 282 292 298 301 301 303 302 302 302 300 298 297 293 294 295 294
203 191 200 209 213 215 218 219 220 221 221 222 223 223 222 223 221 222 224 228 234 240 246 253 253 259 266 277 286 294 298 299 302 304 302 303 300 298 300 298 295 294 294
225 197 204 210 206 217 217 218 221 223 224 224 224 224 223 224 224 224 226 229 235 240 245 250 254 258 268 275 280 287 291 294 298 302 301 305 306 303 301 298 295 294 295
230 224 216 204 197 215 222 219 222 222 223 224 225 225 225 225 226 227 230 233 236 239 244 248 254 260 267 272 276 281 287 292 294 297 297 303 308 301 295 296 294 292 290
232 234 225 222 209 218 213 213 226 222 223 222 224 227 228 230 231 231 233 235 239 240 242 247 253 258 269 274 275 281 285 291 293 293 292 299 305 303 299 294 291 288 288
235 239 239 243 234 229 215 211 217 213 226 217 223 229 231 234 236 235 235 236 239 244 246 247 252 266 272 275 278 281 285 287 293 293 288 295 299 296 297 296 297 293 288
234 238 239 240 242 240 240 227 223 227 222 223 222 223 229 233 235 237 238 239 240 245 249 251 261 269 272 275 277 276 282 287 289 290 291 291 291 293 292 289 292 291 290
237 240 239 242 245 243 247 243 244 250 270 218 246 228 223 233 238 238 241 241 240 246 249 253 266 265 268 278 277 276 281 285 291 292 289 290 291 292 290 289 288 287 287
238 240 239 243 247 244 244 247 235 217 227 241 240 254 234 262 248 244 242 244 248 248 253 274 263 267 285 282 291 279 284 285 286 287 283 287 287 289 289 289 289 288 289